{"data":{"norad_id":60028,"epoch":"2026-09-21T03:44:08.763936Z","epoch_age_seconds":121548,"freshness":"FRESH","line1":"1 60028U 24111N   26264.15565699  .00000124  00000+0  14801-4 0  9995","line2":"2 60028  53.1593 246.7500 0001203  88.2397 271.8743 15.34403436128973","mean_motion":15.34403436,"eccentricity":0.0001203,"inclination_deg":53.1593,"raan_deg":246.75,"arg_perigee_deg":88.2397,"mean_anomaly_deg":271.8743,"bstar":1.4801e-5,"rev_number":12897,"period_min":93.847547927415,"perigee_km":461.87007585773,"apogee_km":463.51597956239,"semimajor_km":6840.8300277101,"source":"CELESTRAK","updated_at":"2026-09-22T09:00:49.139662Z"}}